GFSFLT2_250_rhum_000.txt.gz
RH
22 20 18 15 14 12 9 6 4 4 3 2 3 3 3 3 3 3 3 3 3 3 3 3 3 3 4
17 13 10 8 7 5 5 4 3 2 2 2 2 2 2 2 2 2 2 2 2 2 2 2 2 2 2
10 7 5 5 4 4 3 3 2 2 2 2 2 2 2 2 2 2 2 2 2 2 2 2 2 2 2
5 4 4 3 3 3 3 2 2 2 2 2 2 2 2 2 2 2 2 2 2 2 2 2 2 2 2
3 3 3 4 3 3 3 3 2 2 3 2 2 2 2 2 2 1 1 1 1 1 1 1 2 2 2
3 3 4 3 3 3 3 3 2 2 2 1 2 1 2 2 2 2 2 1 1 1 1 1 1 2 2
3 3 3 3 3 3 2 2 2 2 2 2 2 2 2 2 2 2 2 2 1 1 1 2 2 2 2
3 3 3 3 3 2 2 2 2 2 3 3 3 3 3 3 2 3 3 2 2 2 2 1 1 1 2
3 3 3 2 2 2 2 2 3 3 4 4 4 4 4 3 3 3 3 3 3 2 2 1 1 1 1
3 2 2 2 3 3 3 4 4 5 5 5 5 4 4 4 4 4 3 3 3 2 2 1 1 1 1
2 2 2 3 3 4 5 5 6 6 5 5 5 5 4 4 4 4 3 3 3 3 3 2 2 1 1
3 3 3 4 5 6 6 7 6 5 5 6 6 6 5 4 4 4 4 3 3 3 2 3 2 2 2
4 4 5 7 7 7 7 7 6 6 5 6 7 6 6 5 5 5 4 4 3 3 3 3 3 3 2
5 7 8 9 9 9 8 9 8 6 7 7 8 8 7 6 6 6 5 5 5 4 4 3 3 4 4
8 9 11 12 12 11 9 9 8 8 8 9 10 10 10 8 8 7 6 6 6 5 5 4 4 4 4
11 12 14 15 14 13 13 12 14 10 9 10 10 11 11 10 8 8 7 6 6 6 6 5 5 5 5
14 15 14 15 14 13 17 18 17 17 14 11 10 13 13 11 12 10 9 8 7 6 6 6 5 5 5

GFSFLT2_250_rhum_003.txt.gz
RH
23 23 19 15 14 14 12 9 6 5 4 3 3 3 3 3 3 3 3 3 3 3 3 3 3 3 4
18 16 13 9 6 5 4 4 4 3 3 2 2 2 2 2 2 2 2 2 2 2 2 2 2 3 3
7 6 5 4 4 4 3 3 2 2 2 2 2 2 2 2 2 2 2 2 2 2 2 2 2 2 2
4 4 4 4 3 2 3 2 2 2 2 2 2 2 2 2 2 2 2 2 2 2 2 2 2 2 2
4 4 3 3 3 3 3 3 2 2 3 2 2 2 2 2 2 2 2 2 2 2 2 2 2 2 2
3 3 3 3 2 2 2 3 3 2 3 2 2 2 2 2 1 1 2 2 1 1 1 1 1 1 1
3 3 2 2 2 2 2 2 2 2 2 2 2 2 2 2 2 2 2 2 2 2 2 2 2 2 1
3 2 2 2 2 2 2 2 2 2 2 2 2 2 2 2 3 3 2 2 2 2 2 2 2 2 2
3 2 2 2 2 2 2 2 2 2 3 4 3 4 3 3 4 3 3 3 3 3 3 3 3 2 2
2 2 3 3 3 2 3 4 4 4 4 5 4 4 4 4 4 4 4 4 4 4 4 3 3 2 2
3 3 3 3 4 5 5 6 6 6 6 5 5 5 5 5 4 5 4 4 4 4 4 3 3 2 2
4 4 4 4 5 7 8 8 7 7 6 6 6 5 4 5 5 5 5 5 4 4 4 3 3 2 2
4 5 6 7 8 10 10 10 9 7 6 6 6 6 7 6 6 6 6 6 5 4 4 3 3 2 2
6 8 11 11 12 14 14 11 10 8 6 6 6 7 9 8 6 6 6 7 6 5 4 3 3 3 2
10 13 14 14 14 15 14 12 12 12 10 7 7 8 8 8 8 7 7 6 6 5 5 4 3 3 2
13 15 16 15 14 14 13 11 13 14 14 10 7 8 8 8 9 7 8 7 6 6 6 5 4 4 3
17 18 18 16 15 14 15 14 13 14 17 14 9 8 10 11 10 9 9 8 6 6 6 5 5 4 4

GFSFLT2_250_rhum_006.txt.gz
RH
19 19 16 16 13 7 4 3 3 3 2 2 2 2 3 3 3 3 3 3 3 3 3 3 3 3 4
16 16 13 7 5 4 4 3 2 2 2 2 2 2 2 2 2 3 2 2 2 2 2 2 2 2 2
11 8 6 5 5 5 3 3 2 2 2 2 2 2 2 2 2 2 2 2 2 2 2 2 2 2 2
7 5 5 5 4 3 3 3 2 2 2 2 2 2 2 2 2 2 2 2 2 2 2 2 2 2 2
6 5 4 4 3 3 3 3 2 2 2 2 2 2 2 2 2 2 2 2 2 2 2 2 2 2 2
5 4 4 4 3 3 3 2 2 2 2 2 1 1 2 2 2 2 2 2 2 2 2 2 2 1 1
5 5 4 4 3 3 2 2 2 2 2 2 2 2 2 2 2 2 2 2 2 2 2 2 2 2 2
5 4 4 3 2 3 3 2 3 3 2 3 3 2 3 3 3 4 3 3 3 3 3 3 3 2 2
5 4 3 3 3 3 3 3 3 4 4 5 5 4 4 4 4 4 4 4 4 4 4 3 3 2 2
4 3 4 4 4 4 5 4 5 6 7 6 6 6 4 5 4 5 5 5 5 4 4 3 3 2 2
3 4 4 5 5 7 8 8 7 9 10 7 6 6 5 6 4 5 6 5 5 4 4 4 3 3 3
5 5 5 7 8 11 11 11 12 12 9 8 6 6 6 5 6 6 6 6 6 5 5 4 3 3 2
5 5 7 9 12 14 14 13 14 12 11 10 8 6 6 7 8 9 7 7 6 6 5 4 3 3 2
5 8 10 12 13 14 14 14 14 12 12 13 9 7 8 9 10 10 8 8 7 6 5 4 3 3 3
10 12 14 17 17 17 14 13 12 12 13 12 9 8 9 11 11 11 10 8 7 6 5 4 3 3 3
14 16 17 18 21 22 18 14 14 14 15 15 12 9 11 13 12 11 10 10 8 7 5 5 4 3 3
13 14 16 18 16 19 23 20 15 14 15 19 16 12 12 17 14 12 11 10 9 7 6 5 4 4 3

GFSFLT2_250_rhum_009.txt.gz
RH
35 33 23 17 18 17 10 5 4 4 4 4 3 3 3 3 3 3 2 2 2 2 2 2 3 3 3
32 22 19 22 15 6 5 4 4 4 3 3 3 3 2 2 2 2 2 2 2 2 2 2 2 2 3
19 22 20 11 6 5 5 4 3 3 3 3 3 2 2 2 2 2 2 2 2 2 2 2 2 2 2
18 14 8 6 6 5 4 3 3 3 2 2 2 2 2 2 2 2 2 2 2 2 2 2 2 2 2
11 7 6 5 4 4 4 4 3 3 2 2 2 2 2 2 2 2 2 2 2 2 2 2 2 2 2
6 6 5 4 4 4 4 4 3 2 2 2 3 2 2 2 2 2 2 2 2 2 2 2 2 2 2
6 5 4 5 5 4 4 3 3 4 3 2 3 3 4 4 3 3 2 2 2 2 2 2 2 2 2
4 4 5 5 4 4 3 3 3 5 5 3 4 4 4 4 4 5 4 3 3 3 3 3 3 2 2
5 5 5 4 4 4 4 4 3 5 7 8 9 7 8 6 5 5 5 4 4 4 4 3 3 3 3
5 4 4 4 5 6 5 5 5 7 8 8 11 10 7 7 6 5 6 5 5 4 4 4 4 4 3
4 4 4 5 5 6 7 9 8 10 12 11 10 9 10 7 6 6 6 6 6 5 5 5 4 4 3
4 5 5 5 6 10 11 12 13 12 12 12 10 10 10 7 6 7 7 7 6 5 5 5 4 4 4
5 5 7 9 11 14 18 17 17 13 14 13 12 13 11 7 9 9 8 7 6 6 5 5 4 3 3
4 8 10 12 15 16 18 20 19 17 15 14 14 16 10 9 10 9 9 8 7 5 5 4 4 3 3
10 10 11 11 14 16 17 18 17 19 17 15 14 18 12 11 11 10 9 9 6 5 5 5 4 3 3
11 11 11 12 14 16 16 18 19 20 20 16 14 21 14 12 12 11 11 9 6 5 6 5 4 3 3
7 8 9 10 11 15 17 20 18 19 26 16 14 23 17 15 15 13 12 9 6 6 6 5 3 3 3

GFSFLT2_250_rhum_012.txt.gz
RH
27 25 26 33 28 21 20 21 20 13 6 5 5 4 5 4 4 4 3 3 3 3 2 2 2 2 3
29 43 41 29 25 25 21 15 6 5 5 5 4 4 3 4 4 4 3 3 3 2 2 2 2 2 2
42 39 33 28 25 21 9 6 5 4 4 3 3 4 4 4 3 3 3 2 2 2 2 2 2 2 2
36 29 27 25 16 8 6 5 3 3 4 4 4 4 4 3 3 2 2 2 2 2 2 2 2 2 2
26 25 24 11 8 6 4 3 3 4 4 3 4 3 3 3 3 3 2 2 2 2 2 2 1 1 1
25 16 8 7 5 3 3 4 4 3 4 3 3 3 4 4 4 3 3 2 3 2 2 2 1 1 1
10 7 6 4 4 4 4 4 3 4 4 3 4 3 4 4 4 4 4 4 4 3 2 2 2 2 1
7 5 3 4 5 5 4 4 3 4 6 4 4 4 5 6 6 5 5 5 5 4 3 3 3 3 2
4 4 5 5 4 4 4 4 4 3 5 7 9 8 10 9 9 8 7 6 5 5 4 4 4 3 3
4 5 5 4 4 4 5 5 6 5 8 8 11 10 9 11 10 9 8 6 5 5 5 5 4 4 4
5 4 3 4 4 6 8 10 12 11 12 12 12 10 10 9 10 9 6 6 6 6 6 6 5 4 4
3 4 4 5 6 8 11 12 15 15 12 17 14 11 12 11 12 8 7 8 9 9 8 6 5 5 5
4 4 6 8 10 10 11 12 13 18 16 20 18 13 13 12 11 9 9 10 9 8 7 7 6 5 5
4 6 9 9 10 11 10 11 13 18 17 18 19 14 14 14 11 13 12 8 9 8 7 7 5 5 5
9 9 8 7 7 8 8 9 12 13 16 20 17 16 13 15 15 13 11 10 9 7 7 6 5 4 4
7 6 6 6 6 7 7 8 10 11 14 20 19 17 14 17 15 16 12 10 9 8 7 6 5 4 4
6 5 5 5 5 6 7 8 8 11 14 16 19 15 16 18 18 16 14 11 8 7 6 6 5 4 3

GFSFLT2_250_rhum_015.txt.gz
RH
58 47 35 28 23 24 28 24 21 23 25 26 20 13 7 5 6 5 4 4 3 3 3 3 3 3 3
55 42 30 25 31 26 21 20 23 24 18 11 7 6 5 4 4 3 3 3 3 3 3 4 3 3 3
42 29 30 35 26 23 22 26 22 12 7 6 5 3 3 4 4 4 4 3 3 3 3 3 3 2 2
28 32 33 26 22 24 28 21 8 6 4 3 3 4 4 4 3 3 3 3 3 2 2 2 2 2 2
37 31 25 22 26 25 14 6 4 3 4 4 4 4 3 3 3 3 3 3 3 2 2 2 2 2 2
28 21 24 26 22 8 5 4 4 3 5 3 3 3 4 4 4 4 4 4 4 3 2 2 2 2 2
22 27 26 15 7 4 4 4 4 3 3 3 4 4 4 4 4 4 4 5 5 6 5 5 4 3 3
29 21 11 6 4 5 4 3 3 3 5 5 4 4 5 6 5 6 7 7 7 7 7 7 6 5 4
18 9 6 4 5 5 3 4 4 3 5 5 7 8 8 9 8 9 10 10 10 8 7 7 6 5 5
8 5 4 5 4 4 5 5 5 5 7 8 9 12 8 15 12 12 10 10 9 9 8 7 5 5 5
4 5 5 4 4 5 6 9 10 9 9 9 8 10 14 10 14 12 11 11 9 8 6 5 5 6 5
5 5 4 4 5 7 9 10 10 12 8 9 8 12 12 13 12 12 12 14 10 6 7 8 7 6 6
4 4 4 5 7 8 8 8 8 9 10 8 7 12 13 14 14 13 13 8 12 12 10 9 8 7 7
4 5 6 7 7 6 6 6 6 6 10 8 7 12 12 16 13 11 12 11 8 11 11 10 9 8 7
6 8 7 6 5 5 4 5 5 5 7 10 8 11 14 16 12 18 15 11 14 13 10 8 7 6 6
8 7 6 5 5 5 5 5 5 6 7 9 9 11 14 14 11 14 17 16 14 11 9 7 7 6 5
7 6 6 5 5 5 5 5 5 6 7 9 10 11 15 12 16 13 15 14 12 10 8 7 6 5 4

GFSFLT2_250_rhum_018.txt.gz
RH
24 21 30 35 34 32 29 23 20 20 19 20 24 26 26 24 21 14 8 5 5 4 4 3 3 3 3
21 32 35 34 32 26 23 19 19 20 24 25 24 22 14 8 6 4 3 3 3 3 3 2 3 3 3
28 35 34 32 26 19 20 20 24 25 26 23 16 9 5 3 3 3 3 3 4 4 3 3 3 3 3
32 32 30 21 19 20 22 26 30 25 17 9 6 4 3 4 4 3 3 3 3 2 2 2 2 2 2
38 30 21 22 20 22 28 32 24 12 8 5 4 4 4 3 2 2 2 3 3 3 3 3 3 3 2
23 21 27 19 23 29 31 22 13 4 4 5 4 3 3 3 3 3 3 3 3 3 3 3 3 3 3
26 21 20 26 30 29 19 10 6 4 4 4 3 3 4 4 5 4 4 4 4 5 5 5 5 4 4
22 22 28 28 20 15 8 6 5 4 3 5 4 3 6 6 10 8 9 8 8 9 9 7 7 6 6
26 29 26 17 9 6 5 5 4 3 2 5 6 7 8 6 10 10 10 11 12 12 12 10 9 8 8
31 21 13 6 5 4 4 4 4 4 3 6 6 8 8 6 10 10 10 12 14 14 12 10 10 10 9
19 9 6 4 4 4 3 4 6 7 6 6 5 6 8 6 7 13 12 10 15 14 12 11 13 12 7
8 5 5 4 4 5 5 5 5 6 6 6 6 5 5 7 6 10 14 12 15 12 11 11 10 8 8
5 5 5 5 5 6 5 4 4 4 6 5 4 4 5 8 5 9 10 15 15 13 13 10 8 8 8
6 5 6 6 5 5 5 4 4 4 6 5 4 5 7 8 7 8 14 12 12 19 16 11 13 9 8
5 7 6 7 5 5 5 5 5 5 5 5 5 7 8 8 10 10 15 13 14 11 10 9 9 7 7
8 7 7 6 6 5 5 5 5 5 5 6 6 8 9 10 11 14 17 14 14 14 12 9 7 6 5
7 7 6 6 5 5 5 5 5 5 6 7 9 10 10 12 11 11 14 17 16 12 7 6 5 6 5

GFSFLT2_250_rhum_021.txt.gz
RH
36 41 43 41 41 39 34 29 26 21 15 20 24 24 21 20 23 22 22 21 16 11 8 6 5 4 4
32 31 31 32 28 27 26 24 20 18 24 26 22 17 26 21 20 19 14 9 6 5 4 3 3 2 2
31 28 27 27 27 25 22 20 26 22 19 17 22 22 20 17 13 8 6 4 3 2 3 3 3 3 3
28 26 24 22 20 24 30 25 24 16 22 25 20 18 13 8 6 5 3 3 3 3 3 2 2 2 2
27 25 26 30 29 27 20 20 28 23 23 21 14 9 6 4 4 4 4 4 3 3 3 3 3 3 3
29 30 27 19 17 18 26 24 29 21 15 10 6 4 3 3 4 4 3 3 3 3 4 4 4 3 3
20 18 16 19 26 27 25 22 17 9 7 6 4 4 3 3 3 4 4 4 5 6 6 6 7 6 5
19 22 26 25 21 19 16 13 8 5 3 5 4 3 3 3 3 5 7 7 7 6 7 7 8 8 7
26 26 24 19 15 13 8 6 4 4 3 4 4 5 5 4 5 7 10 8 7 7 8 8 8 9 9
27 23 18 12 8 5 4 4 4 4 3 5 5 5 7 5 4 6 8 7 7 7 9 11 11 11 12
23 16 9 6 4 4 4 4 4 5 5 5 5 4 4 4 3 5 7 7 7 7 11 10 10 13 14
11 8 5 4 4 4 4 5 4 4 5 4 4 3 4 4 4 5 7 6 6 8 11 10 12 13 13
6 5 5 4 5 6 5 4 4 4 5 4 4 4 4 4 4 5 5 7 10 8 8 11 12 12 14
5 5 5 7 6 5 6 5 4 4 5 4 4 4 4 4 5 6 6 8 9 9 12 10 12 17 11
5 7 8 6 5 6 6 5 5 4 5 5 5 4 5 5 5 6 7 9 11 12 16 11 14 14 12
8 8 7 6 6 6 5 4 4 5 5 5 6 6 6 7 7 8 10 10 12 14 13 12 12 11 8
9 8 8 7 6 6 6 6 6 6 6 8 8 9 8 9 10 12 16 13 13 13 10 9 8 7 6

GFSFLT2_250_rhum_024.txt.gz
RH
57 60 65 60 55 50 49 47 40 34 29 27 24 22 22 21 20 18 16 16 17 20 20 17 14 14 16
60 64 62 60 52 43 37 34 32 30 28 27 25 22 20 19 22 24 24 23 18 17 16 14 16 16 14
53 49 50 48 45 40 35 33 31 27 24 22 20 22 23 20 19 18 17 17 18 22 19 15 12 9 7
61 56 51 42 36 31 37 28 25 21 22 24 20 19 18 17 16 18 21 20 17 13 8 6 5 4 3
50 42 35 33 28 25 22 23 23 20 22 25 20 22 21 19 15 12 10 7 6 6 4 3 3 3 3
34 27 24 23 24 30 34 31 31 25 20 18 15 13 9 7 5 4 5 4 4 4 3 3 3 3 3
22 23 31 38 36 34 26 20 17 13 10 10 6 6 5 4 3 3 3 4 4 4 4 3 4 4 4
48 48 40 30 21 19 15 12 9 7 5 6 4 3 3 3 2 2 3 5 7 7 5 5 5 5 6
38 30 26 20 15 11 8 7 6 5 2 4 4 4 4 4 4 3 4 6 5 5 5 6 7 7 7
29 23 18 11 8 7 5 4 4 5 3 5 5 4 5 4 3 3 4 5 4 4 4 6 7 7 6
20 13 9 7 5 4 4 4 4 5 5 6 4 4 4 5 4 3 4 4 4 3 4 5 6 6 6
12 10 6 4 5 5 4 5 5 5 5 4 4 4 4 4 4 4 4 4 4 4 4 5 5 6 6
9 5 5 6 5 7 6 5 4 5 5 4 4 4 4 4 4 4 4 4 4 4 5 5 5 6 8
5 6 6 7 9 8 7 6 5 5 4 4 4 4 5 6 5 5 6 6 6 6 6 7 8 10 12
7 7 10 10 8 8 7 7 6 6 6 5 6 6 7 7 7 8 8 8 7 7 7 8 11 13 11
8 12 10 8 8 8 8 8 7 7 7 8 8 9 9 8 8 8 9 9 9 10 9 9 13 12 11
12 10 8 9 9 9 10 9 9 10 12 11 9 8 8 9 10 12 12 12 13 12 12 11 10 11 10

GFSFLT2_250_rhum_027.txt.gz
RH
85 74 74 72 69 65 61 57 56 53 53 53 55 53 50 47 38 30 26 25 26 26 24 23 22 20 18
73 74 79 74 67 69 63 57 50 49 42 37 38 35 39 40 38 34 30 25 21 20 20 18 16 14 13
71 74 70 63 57 50 45 38 32 28 26 25 25 24 24 23 21 20 19 17 16 16 16 14 12 12 12
62 58 53 41 34 31 32 30 33 33 30 30 28 22 19 17 16 15 13 13 13 13 13 14 14 14 14
64 48 37 37 33 38 42 43 40 34 28 25 20 16 15 13 12 12 11 11 11 12 12 11 11 11 10
52 45 48 48 48 40 34 29 28 24 19 16 10 9 6 5 5 4 4 5 5 6 6 5 5 4 4
54 56 49 40 34 30 27 24 20 12 8 9 7 6 4 4 3 2 2 3 3 4 4 4 4 3 3
61 49 39 32 26 24 21 17 12 8 5 5 4 3 3 3 3 2 2 3 4 5 5 4 3 2 3
48 39 32 26 22 20 14 12 9 6 3 4 4 4 5 5 4 3 3 4 4 4 3 3 3 3 4
36 31 28 23 18 14 11 7 5 6 5 5 5 5 6 4 4 3 4 3 3 3 3 4 4 4 4
36 32 22 16 12 8 5 6 6 6 6 7 6 5 5 5 4 4 4 3 3 4 4 4 4 4 4
31 20 16 11 7 6 6 6 7 8 6 6 6 6 5 5 4 4 4 4 4 4 4 4 4 5 4
17 14 8 7 8 7 7 8 7 8 8 7 7 6 6 5 5 5 5 5 5 4 4 4 5 5 5
11 7 7 8 7 9 9 8 8 7 8 8 7 9 8 10 8 8 7 6 7 6 6 6 6 6 6
8 9 8 8 9 11 9 10 9 8 7 8 11 12 12 10 9 10 10 9 8 8 8 8 9 9 8
9 9 9 12 10 9 10 10 9 10 9 9 11 9 10 15 15 15 13 12 12 12 12 14 13 10 11
10 12 11 11 9 10 10 9 10 11 13 13 14 15 13 13 16 16 19 16 14 12 12 13 14 14 13

GFSFLT2_250_rhum_030.txt.gz
RH
73 71 84 78 75 75 75 66 62 54 46 41 35 33 34 37 40 43 45 42 36 31 29 31 33 36 37
59 66 74 75 90 69 62 50 39 33 27 29 36 41 45 44 44 44 43 39 32 26 22 18 17 16 16
72 66 76 81 59 50 49 40 36 32 37 41 39 34 31 30 30 30 29 27 25 24 23 20 17 14 11
69 66 66 51 45 44 43 45 49 45 40 36 31 27 22 20 16 13 13 13 12 12 13 14 15 16 17
71 65 47 38 43 43 48 51 56 46 40 36 27 24 15 10 7 6 6 5 5 5 5 6 6 6 7
74 60 54 58 54 57 53 48 48 45 39 36 25 18 9 7 5 4 3 3 3 3 4 3 3 3 3
74 66 61 61 60 56 57 51 48 40 34 31 14 9 6 4 3 3 3 3 3 3 3 3 3 3 2
78 63 63 60 53 58 54 53 41 33 15 17 8 5 6 4 4 4 4 4 4 4 3 3 4 4 4
63 66 66 61 57 54 49 39 35 22 9 8 4 7 6 5 6 5 4 4 4 4 3 3 4 4 4
63 62 60 56 52 42 37 32 19 12 8 8 6 7 11 5 5 5 5 4 4 4 3 3 3 3 3
63 57 52 45 39 32 22 14 9 8 8 9 9 8 8 8 6 5 5 5 5 6 5 4 4 4 4
52 46 38 35 22 15 10 8 7 9 9 10 9 8 8 8 6 6 7 9 6 6 6 6 5 4 4
37 35 25 14 10 8 8 8 7 10 10 9 9 8 9 10 10 10 8 7 7 7 7 7 6 5 5
18 14 11 8 8 9 8 8 10 7 8 9 8 9 11 12 8 11 14 12 11 11 10 9 8 6 5
9 8 8 9 8 9 11 10 9 8 8 7 8 9 10 20 19 14 18 13 13 12 13 15 11 11 10
9 9 9 10 11 11 9 8 8 9 9 10 9 8 10 16 27 17 18 17 15 13 13 14 13 12 13
10 12 13 11 10 10 9 9 9 9 11 12 13 17 17 13 16 17 15 12 11 11 10 9 9 9 10

GFSFLT2_250_rhum_033.txt.gz
RH
100 98 98 84 88 56 52 57 66 63 62 60 64 62 52 45 41 40 48 48 45 42 40 39 39 39 38
100 96 80 62 64 57 62 55 59 60 58 53 50 45 36 39 44 40 37 32 29 29 28 26 25 24 23
100 99 73 58 60 50 51 56 59 61 56 52 44 43 42 37 31 32 27 21 24 23 18 14 12 12 12
96 73 77 67 46 50 56 59 63 56 51 45 44 41 34 33 26 22 20 19 14 9 7 6 5 5 5
72 60 52 53 54 54 60 59 54 49 47 54 42 42 37 28 20 16 16 11 8 5 4 4 3 3 3
65 54 50 61 61 51 53 52 56 50 52 57 40 44 31 20 12 10 8 5 4 4 4 4 4 4 3
57 61 66 66 57 61 57 53 58 54 47 54 43 45 34 20 8 6 5 5 5 4 5 4 4 4 4
72 82 69 59 59 57 62 60 52 48 36 46 42 38 28 9 5 5 6 6 6 6 5 5 4 4 4
74 58 54 56 62 66 59 54 51 42 34 42 31 14 9 5 5 5 7 7 6 6 7 6 5 4 4
56 64 67 70 64 54 47 42 39 37 29 16 10 8 10 6 5 5 6 6 7 7 7 6 6 5 5
69 67 63 52 44 43 41 37 30 13 10 10 10 9 9 11 7 6 6 6 7 6 7 8 6 6 5
57 45 42 41 41 37 26 12 9 8 8 10 10 10 11 11 9 7 7 5 9 6 7 9 9 7 6
43 40 39 37 22 12 9 8 8 8 10 12 13 10 9 10 11 10 9 6 12 10 11 13 12 10 9
37 34 20 11 9 8 8 8 9 9 12 10 10 9 9 9 14 11 11 14 12 13 13 15 13 12 12
20 12 10 8 8 10 12 12 11 10 7 8 10 10 8 14 16 15 17 17 17 14 13 13 12 13 14
10 8 7 9 10 13 11 10 10 8 9 10 10 8 10 14 23 22 20 19 16 12 10 9 9 9 10
7 7 9 12 13 12 9 9 8 9 11 13 10 14 16 16 19 16 13 12 10 10 9 9 8 8 8

GFSFLT2_250_rhum_036.txt.gz
RH
100 100 100 100 83 65 71 66 59 59 48 54 60 58 56 51 48 52 52 54 51 50 46 47 45 48 47
100 100 100 100 100 100 100 93 82 64 49 56 56 56 57 57 47 48 50 50 46 43 38 40 36 32 32
100 92 85 92 98 97 100 75 61 58 55 57 55 59 57 49 50 47 43 38 36 38 36 33 32 27 23
100 100 98 91 98 93 91 77 61 54 50 56 57 48 50 50 44 39 34 32 33 34 33 29 21 14 11
86 80 99 86 100 92 83 64 66 55 53 55 53 49 45 47 41 34 33 32 32 32 25 13 9 7 5
91 100 88 78 83 66 54 59 61 58 63 60 49 58 53 43 39 30 27 24 18 14 9 6 5 4 4
97 81 71 63 67 56 55 60 60 60 59 63 52 55 46 40 30 24 15 11 9 7 6 6 6 5 4
64 65 68 71 70 71 69 70 63 54 51 58 49 48 49 36 21 10 8 8 7 7 6 6 7 6 6
75 76 80 76 68 62 63 54 52 49 49 47 42 42 38 19 8 7 7 8 8 8 9 8 8 6 4
81 81 74 67 56 47 43 47 49 44 41 41 33 21 13 9 6 6 7 8 8 8 7 8 9 6 7
85 72 63 51 44 44 42 38 35 32 31 23 12 10 8 11 9 7 8 7 6 6 7 8 8 8 10
58 45 40 39 37 34 33 32 28 17 10 10 10 12 12 12 12 8 8 7 6 7 6 7 11 12 13
41 38 37 36 35 30 25 16 10 10 8 12 16 14 10 10 11 9 10 7 7 7 6 10 13 15 14
36 34 29 23 15 11 10 9 8 7 11 16 15 12 10 10 11 13 8 10 10 11 12 14 14 14 13
16 14 10 10 10 9 8 7 8 10 12 14 14 11 9 10 14 12 12 13 17 18 16 15 13 10 10
10 9 8 8 8 7 8 10 13 14 14 13 10 9 9 11 17 17 17 20 19 18 16 12 12 11 9
8 8 8 6 7 9 13 16 15 14 12 12 11 10 10 9 22 23 21 18 14 14 14 14 11 12 12

GFSFLT2_250_rhum_039.txt.gz
RH
96 100 100 100 100 100 100 100 100 99 92 99 95 85 94 70 73 67 67 48 45 50 53 51 51 51 53
100 100 100 100 100 100 100 100 100 100 99 93 83 65 77 75 72 72 63 58 51 56 57 62 59 50 50
100 100 100 100 96 90 91 88 84 94 88 80 82 77 67 65 61 50 52 48 50 52 49 50 49 46 44
100 100 100 100 100 100 93 83 83 73 62 65 67 65 58 61 59 54 49 44 44 47 44 42 42 40 36
86 98 94 76 65 69 69 70 80 81 71 69 68 57 60 56 51 44 42 45 44 43 44 43 40 34 29
91 82 80 100 81 84 74 72 65 72 61 61 58 60 55 47 44 45 48 46 44 42 41 37 32 24 14
76 75 77 86 76 72 76 71 67 66 66 69 49 46 47 46 46 47 44 41 38 36 32 25 16 8 7
89 87 77 82 82 84 83 76 65 54 48 54 46 52 51 46 42 38 36 31 26 20 12 8 7 8 8
84 83 81 84 87 76 63 57 49 44 47 47 46 46 43 38 36 31 20 16 10 9 8 9 9 10 9
97 96 86 81 73 57 49 47 46 41 40 40 39 38 42 28 18 12 10 8 8 10 12 12 9 8 8
83 69 60 53 49 45 42 38 35 35 33 31 22 16 13 11 10 6 6 8 11 10 8 8 8 9 9
61 55 50 48 43 37 35 32 25 17 12 10 10 10 9 7 7 6 9 9 8 7 8 8 9 8 9
51 47 41 34 27 24 19 14 9 9 8 8 8 8 7 9 10 10 11 7 6 8 8 8 9 10 11
32 23 19 19 16 11 8 8 7 8 8 8 8 11 12 12 12 12 9 8 8 8 8 8 12 14 10
26 20 13 9 7 7 7 8 7 7 7 12 15 17 15 12 13 10 10 9 11 11 13 12 14 14 11
13 10 7 7 7 7 7 7 7 9 10 15 17 17 13 9 12 11 10 12 14 17 19 14 13 13 13
8 7 7 6 6 6 7 10 10 13 16 17 14 12 8 8 10 14 14 16 16 16 15 14 15 17 17

GFSFLT2_250_rhum_042.txt.gz
RH
100 100 100 100 100 100 100 100 100 100 100 100 95 100 100 100 96 100 99 94 89 86 80 89 68 84 68
100 100 100 100 100 100 100 100 100 100 100 100 100 100 100 86 71 73 79 92 71 78 79 76 86 63 60
98 100 100 100 100 100 100 100 100 100 100 100 100 97 86 75 76 66 69 76 75 64 62 56 50 46 45
93 79 79 99 100 100 100 100 100 100 100 100 96 86 72 62 70 68 60 60 64 60 56 53 52 51 48
100 100 100 98 99 100 99 84 86 80 78 75 70 63 65 77 59 53 49 52 51 50 48 47 50 52 50
100 100 100 100 99 100 100 96 80 68 65 76 77 70 70 52 45 42 42 44 48 52 53 50 48 44 41
92 96 98 100 95 97 91 92 87 84 76 67 58 51 45 41 43 44 43 44 43 42 41 39 36 34 32
100 100 100 96 91 83 74 66 57 51 48 44 46 45 44 42 40 38 38 36 35 33 30 29 27 25 21
86 80 70 64 62 58 54 53 50 48 49 48 45 45 41 35 32 30 26 24 22 18 15 14 13 11 9
78 72 70 73 72 68 61 57 56 52 50 46 39 40 38 24 21 17 13 11 10 9 9 9 8 7 7
77 75 75 72 69 65 64 59 51 43 35 34 28 23 21 24 12 8 8 8 8 8 8 6 7 11 13
78 75 70 64 57 49 40 32 28 25 21 18 14 11 9 8 7 7 7 6 6 7 8 8 13 12 10
64 57 47 39 37 34 30 24 14 10 9 8 7 7 7 7 7 6 6 5 8 11 10 11 9 9 10
49 44 43 39 28 16 11 10 8 7 6 6 6 7 6 6 6 7 8 13 11 9 10 9 10 11 11
43 41 32 14 10 8 8 7 6 6 6 6 7 8 9 8 9 13 14 14 11 9 10 10 10 15 15
39 24 12 9 8 8 8 8 7 8 8 8 10 12 14 12 15 14 13 12 9 10 12 12 15 18 16
26 12 9 8 8 9 10 10 10 10 9 9 12 19 21 16 9 10 16 9 11 12 17 19 18 19 20

GFSFLT2_250_rhum_045.txt.gz
RH
54 62 74 100 100 100 100 100 100 100 100 100 100 100 100 100 95 97 100 78 79 100 100 100 100 100 100
67 74 81 100 98 96 100 90 100 100 100 100 100 100 100 100 99 100 100 100 100 100 100 100 92 83 81
79 88 99 100 92 100 100 98 100 100 100 78 100 100 100 100 100 100 100 100 99 100 78 76 69 73 76
98 96 92 100 100 100 100 100 100 100 100 100 100 97 100 100 92 98 87 90 96 77 75 69 68 68 56
88 100 100 100 100 100 100 100 100 100 100 100 100 100 100 98 79 85 84 86 74 74 71 62 56 54 54
72 87 96 93 92 90 94 97 95 95 95 100 100 86 73 70 80 75 75 69 60 56 53 55 56 54 50
84 92 94 96 97 99 91 94 89 85 84 75 72 68 70 68 64 58 54 54 52 48 44 42 41 40 40
64 68 71 74 79 76 71 69 67 69 75 66 62 58 55 52 50 46 42 38 37 37 37 35 34 32 29
84 87 87 84 86 82 83 81 79 75 76 73 65 61 52 45 39 35 32 30 27 25 23 21 19 17 15
91 94 94 91 89 87 86 86 84 79 74 65 51 46 38 28 26 24 22 20 19 19 17 14 12 11 9
85 86 83 85 88 84 77 70 63 56 49 44 39 42 44 32 20 17 13 10 9 9 8 7 7 7 8
68 69 70 72 66 60 55 46 40 38 36 31 22 16 12 11 8 7 6 6 6 7 7 7 8 7 8
68 66 63 58 51 42 40 41 34 22 13 10 9 8 8 8 8 6 6 6 6 6 6 6 7 11 16
64 62 54 46 37 39 36 23 12 9 8 8 8 8 8 8 8 6 5 7 6 9 11 10 13 19 16
57 53 43 38 40 31 14 9 8 8 8 10 11 13 13 11 8 9 8 7 11 14 12 11 11 12 10
51 41 38 36 23 11 9 11 12 12 11 10 12 16 17 14 11 12 9 13 13 14 12 11 9 11 12
43 40 33 18 10 9 11 11 10 10 10 11 13 17 20 17 13 11 13 12 16 12 10 12 10 14 17

GFSFLT2_250_rhum_048.txt.gz
RH
12 20 34 57 60 67 70 79 82 100 100 100 100 100 100 100 100 100 100 100 100 100 100 100 95 98 94
8 10 14 57 99 100 100 96 98 100 100 76 100 100 100 100 100 100 100 100 100 100 100 86 100 100 100
7 12 20 49 100 100 100 100 100 98 100 100 98 100 100 100 100 100 100 100 100 100 100 100 100 100 100
15 24 34 51 100 100 100 100 100 100 100 100 100 100 100 100 100 100 99 96 100 100 100 100 100 95 99
33 30 42 55 77 87 99 100 100 100 96 99 100 100 100 100 97 100 100 99 98 99 97 91 74 79 81
50 55 58 67 74 92 90 88 87 85 86 78 79 84 93 98 87 86 92 97 89 92 88 91 87 84 89
58 57 56 62 71 75 72 71 76 74 75 73 70 73 71 70 69 71 74 87 91 82 84 83 79 69 63
64 65 65 66 68 71 74 78 82 82 85 80 81 76 77 75 72 71 72 70 68 65 62 58 53 50 49
67 74 83 91 97 95 93 92 92 91 94 92 87 78 73 66 61 58 56 53 50 47 44 41 38 34 32
63 68 72 74 75 76 75 75 72 72 73 74 67 63 60 57 55 51 49 45 39 34 33 31 29 28 24
66 70 70 67 66 63 62 63 59 54 54 55 52 50 47 42 42 40 42 38 32 26 21 15 12 10 9
71 68 68 65 64 64 59 54 46 42 41 41 40 39 38 29 21 15 11 9 9 8 8 9 8 7 7
64 64 63 63 62 54 46 40 38 39 40 38 30 20 13 10 9 7 7 8 7 8 8 9 8 8 8
60 60 60 57 48 41 37 38 40 35 22 13 10 10 12 12 12 9 7 8 6 8 13 12 10 10 12
60 56 54 43 37 38 40 36 22 11 9 10 11 11 11 11 12 10 9 8 8 8 11 14 12 13 16
56 59 45 41 41 39 29 14 10 10 10 8 8 10 12 14 13 12 10 10 10 12 13 16 14 11 14
62 50 48 46 40 22 11 12 11 10 9 8 8 9 10 12 12 11 12 10 10 10 10 11 12 6 10

GFSFLT2_250_rhum_051.txt.gz
RH
34 25 18 9 5 6 13 26 38 73 99 75 79 100 100 100 96 93 100 100 100 100 100 100 100 100 100
40 32 22 14 8 10 12 21 51 84 100 99 100 100 100 100 100 85 100 100 100 100 100 100 100 100 100
43 39 30 25 24 23 29 58 72 88 100 100 100 100 100 100 100 100 100 100 100 100 100 100 100 100 100
44 42 47 50 45 42 44 58 73 73 100 100 100 100 100 100 100 100 100 100 100 100 100 100 100 100 100
43 44 44 45 51 58 58 54 59 78 82 93 100 100 100 100 100 100 100 100 98 85 100 100 100 100 100
53 53 53 46 42 43 54 67 73 72 68 73 88 94 88 88 89 100 100 100 100 100 92 96 93 86 91
69 63 58 52 57 56 57 59 64 75 90 94 90 96 92 94 98 84 85 88 90 94 94 96 95 87 86
71 64 59 57 60 63 70 76 78 79 84 83 70 68 72 80 86 87 87 85 84 83 80 75 72 70 64
69 65 60 56 57 57 59 62 65 67 71 75 75 73 73 73 70 66 60 60 59 55 54 53 53 54 55
73 63 59 59 61 63 63 63 62 58 59 59 55 55 56 58 58 57 56 55 52 49 47 44 41 40 38
67 64 63 64 66 67 64 56 52 49 51 51 45 43 43 42 42 40 41 41 39 37 37 36 36 36 35
68 68 70 70 72 71 55 49 49 46 41 39 38 38 39 38 37 32 32 28 24 19 16 14 13 12 12
78 78 74 73 77 61 51 53 45 38 38 40 39 33 22 14 12 10 9 9 10 10 10 11 13 14 13
82 79 77 77 67 51 51 49 40 38 36 26 14 12 12 12 13 10 8 10 8 10 12 12 14 14 14
86 79 78 72 55 53 51 42 39 32 16 14 15 13 12 10 10 9 8 7 8 10 13 15 14 13 14
82 82 73 64 56 56 47 42 34 19 14 13 13 14 12 10 8 8 6 7 8 10 13 16 15 14 16
81 73 72 61 63 47 44 37 24 17 16 15 13 12 11 9 6 6 9 7 7 8 9 10 11 8 14

GFSFLT2_250_rhum_054.txt.gz
RH
48 43 44 42 42 36 32 26 24 17 14 23 38 54 60 89 100 100 100 100 100 100 100 100 99 97 92
48 44 50 48 44 40 34 33 32 27 31 39 48 70 70 99 100 100 100 100 100 100 100 100 100 100 84
47 46 50 49 48 49 45 38 34 40 46 43 61 80 95 100 100 100 100 100 100 100 100 100 100 100 98
47 52 51 51 50 46 43 47 52 47 47 58 60 61 76 87 92 85 100 100 100 100 100 100 100 98 96
53 54 55 58 58 53 51 53 50 53 60 60 64 66 68 72 78 88 79 77 91 100 100 100 100 100 99
59 61 65 74 68 60 63 58 59 59 62 62 64 63 69 78 79 80 78 88 98 98 98 100 100 100 100
70 74 82 81 69 66 64 60 63 66 72 69 69 69 68 71 69 68 70 73 81 84 84 84 88 90 92
78 90 89 80 79 70 63 62 63 64 68 71 64 60 58 59 59 64 70 77 78 72 68 68 73 75 73
90 87 86 86 76 67 68 67 63 64 66 68 61 50 46 49 53 55 54 53 54 56 57 57 58 59 60
87 88 77 71 70 72 75 68 64 65 66 58 42 42 46 50 48 45 43 43 45 46 44 43 43 43 41
72 74 78 78 79 77 72 68 67 65 66 52 40 42 45 44 43 44 43 42 43 42 40 38 38 39 39
80 84 83 80 75 71 70 72 69 66 59 51 46 43 41 43 38 24 18 14 12 11 12 14 15 17 19
82 76 74 72 73 76 78 75 66 62 52 49 46 43 43 30 16 10 12 11 12 12 11 12 12 12 12
74 75 72 73 76 76 70 69 64 54 51 42 40 43 30 16 16 13 11 12 10 12 15 14 12 12 13
80 79 85 82 78 69 65 64 57 47 36 39 47 43 21 18 15 14 12 10 9 7 8 10 10 8 8
83 91 87 81 75 66 56 55 48 39 38 37 39 31 24 19 19 20 13 10 8 8 9 10 9 8 9
96 92 88 83 72 51 46 43 42 42 39 38 33 27 25 20 16 21 17 14 12 9 10 10 8 7 10

GFSFLT2_250_rhum_057.txt.gz
RH
36 38 42 50 50 53 48 48 46 45 46 33 22 21 26 40 58 62 66 71 85 100 100 100 91 100 88
36 38 50 53 54 55 52 54 51 59 54 48 41 40 45 47 57 69 96 91 85 100 100 100 100 100 100
40 43 56 54 60 59 59 59 62 70 68 54 53 56 55 57 65 64 69 89 96 100 98 100 100 100 98
44 53 54 56 62 67 68 68 74 73 72 68 61 60 57 60 62 61 69 73 84 86 100 100 100 100 100
52 56 60 60 64 67 72 76 75 71 70 67 66 68 71 68 60 57 63 72 76 73 81 98 100 95 100
52 58 59 64 66 78 81 79 79 73 66 64 62 61 64 66 70 70 71 61 58 61 72 69 72 95 86
53 55 64 78 84 87 88 79 72 70 71 66 66 65 62 64 66 68 67 58 52 53 55 63 75 78 74
66 79 88 91 93 86 75 70 70 74 74 71 66 65 65 66 66 64 56 48 42 40 46 49 51 59 66
76 80 80 74 69 70 72 76 75 71 67 68 69 67 64 63 57 49 45 46 44 40 41 43 46 50 50
63 66 69 72 74 70 70 72 71 71 71 67 67 66 61 54 45 46 45 45 43 41 41 41 41 42 40
66 69 72 73 75 78 76 74 76 78 75 72 67 64 54 47 40 41 35 36 38 40 40 37 35 33 32
71 73 73 75 76 76 74 74 72 73 76 77 70 54 47 42 33 30 32 38 36 21 20 20 18 17 15
73 76 80 79 74 77 78 78 72 74 71 61 54 47 43 37 34 28 32 29 22 23 17 14 13 12 12
76 79 84 82 82 81 76 76 76 72 62 51 45 43 42 42 35 30 31 23 20 18 20 19 14 10 10
91 89 84 86 83 77 77 75 72 56 40 40 44 48 47 42 33 28 25 22 21 18 19 16 14 13 10
84 78 83 84 79 77 78 74 57 44 39 34 32 33 34 34 32 24 19 21 21 24 24 19 14 14 13
71 77 82 77 77 75 72 53 42 37 26 24 23 26 30 32 22 13 20 21 23 35 38 36 23 16 15

GFSFLT2_250_rhum_060.txt.gz
RH
36 37 38 32 36 36 41 44 54 56 55 60 62 69 74 56 45 41 38 40 62 75 83 100 100 100 100
30 34 29 33 36 38 44 50 58 58 58 63 62 75 74 67 55 55 55 59 62 84 88 91 76 84 100
34 29 30 33 38 40 46 53 60 60 64 64 76 77 68 67 65 62 59 58 58 68 80 98 100 100 100
29 30 33 38 41 45 50 58 62 67 69 73 79 66 63 61 63 70 70 68 65 63 63 65 77 99 100
31 34 39 45 45 53 61 67 76 83 86 80 65 59 59 61 63 66 70 72 67 65 67 65 63 63 80
36 43 50 53 60 68 77 78 88 71 63 63 66 68 62 62 61 62 64 66 71 80 82 78 73 66 61
44 53 63 68 69 70 73 71 68 66 64 64 67 68 66 65 66 67 67 64 64 65 63 60 60 62 58
56 62 63 61 61 63 64 64 67 67 68 67 68 66 65 65 68 73 74 68 66 60 50 47 46 45 47
63 61 62 63 63 62 66 69 71 72 72 68 68 70 70 71 77 84 80 66 55 46 44 44 47 47 45
73 68 68 72 70 69 72 76 82 80 75 75 78 77 75 78 84 81 64 49 43 42 39 38 38 38 37
84 81 79 80 81 78 76 74 72 70 75 77 76 77 79 83 74 60 47 42 40 37 38 40 40 40 37
74 82 86 85 82 83 81 79 75 77 81 78 78 80 84 78 54 43 39 41 42 42 41 41 37 34 27
76 74 75 78 78 74 71 68 72 78 75 78 83 83 76 57 45 36 33 31 32 37 39 35 28 25 19
77 74 69 71 70 70 71 70 76 78 78 81 82 77 56 44 35 25 24 24 23 28 32 30 26 20 19
84 82 76 67 70 71 72 84 77 73 78 83 80 55 46 32 23 22 21 21 22 25 28 27 23 20 23
87 82 71 68 73 74 88 84 76 78 78 60 41 38 28 23 21 20 20 19 18 17 20 20 16 19 40
89 86 76 75 76 88 84 82 81 75 48 35 32 24 20 20 21 18 15 12 13 15 14 13 14 24 54

GFSFLT2_250_rhum_063.txt.gz
RH
46 47 43 32 26 24 26 26 30 33 39 43 49 53 57 57 60 69 59 58 50 41 44 52 66 60 92
48 56 45 33 30 27 26 29 34 40 43 48 53 55 59 63 67 69 64 58 64 62 58 56 66 90 82
56 63 45 34 30 27 31 35 44 45 49 56 59 63 66 66 60 61 64 69 69 67 70 73 65 87 81
65 57 43 37 31 34 36 46 51 54 60 67 75 76 60 53 59 60 60 61 62 61 61 63 70 70 76
67 63 44 37 39 40 46 53 60 63 70 73 64 56 56 61 61 61 61 59 58 61 67 65 64 64 70
85 63 58 47 53 57 57 59 62 60 60 58 56 58 59 60 61 62 62 63 68 71 72 76 77 73 67
83 72 57 53 63 74 69 65 61 62 58 59 62 63 65 67 68 68 70 71 72 73 76 78 76 71 68
75 80 56 58 62 70 81 82 74 68 67 63 63 65 66 67 73 75 73 71 72 75 79 82 74 63 54
92 73 64 63 66 67 71 79 85 83 78 76 72 72 76 79 78 75 70 71 72 77 81 74 58 54 49
90 69 64 72 71 70 72 71 72 74 78 75 76 77 76 76 74 73 74 72 76 79 70 51 49 47 44
82 68 62 64 75 79 79 79 78 72 68 69 74 79 75 74 72 73 76 77 76 61 45 42 37 34 34
81 74 68 70 75 80 78 76 83 77 73 71 74 76 72 72 75 80 77 73 61 42 38 29 24 24 25
81 73 69 74 76 75 79 81 86 84 74 73 78 75 75 83 90 80 71 48 36 32 25 23 22 22 24
71 69 76 74 66 75 80 84 85 86 81 76 76 80 88 94 87 66 38 34 27 21 20 19 21 23 24
73 80 78 70 72 80 88 90 89 86 80 77 78 84 88 84 60 34 30 24 20 18 19 22 21 18 16
80 83 78 82 90 93 93 91 87 82 77 81 83 84 82 54 37 29 20 19 17 19 20 17 14 10 12
87 87 90 97 98 96 96 90 83 77 78 76 76 69 43 38 32 19 17 16 20 23 15 13 15 11 12

GFSFLT2_250_rhum_066.txt.gz
RH
76 64 49 38 38 33 49 43 31 31 27 27 33 42 43 47 56 59 66 80 74 56 51 48 50 52 46
55 45 42 39 42 63 49 40 39 33 32 35 43 47 51 58 65 74 83 69 62 62 67 63 57 56 62
40 45 43 52 64 69 61 46 43 39 39 44 49 54 62 64 69 64 61 58 57 60 60 59 59 58 60
44 60 60 75 77 75 60 60 47 42 49 57 58 59 57 56 56 59 57 58 61 64 65 64 64 66 63
50 58 80 86 90 78 77 64 59 45 56 64 68 68 65 63 61 60 58 59 62 65 68 70 75 77 77
81 90 90 92 81 94 73 66 58 46 57 62 69 82 81 76 72 68 65 65 65 68 73 68 67 69 72
80 100 100 89 97 86 72 77 68 58 62 64 70 71 75 83 89 87 82 76 74 73 69 64 65 68 71
100 100 96 100 100 87 81 84 64 61 66 69 68 72 75 74 71 70 73 75 74 71 71 69 67 73 77
100 100 100 100 98 85 85 82 67 68 65 67 70 72 72 72 72 66 64 69 72 70 70 71 76 80 82
100 100 100 89 90 89 90 90 71 69 68 70 70 73 74 77 81 76 68 65 71 75 74 80 82 83 78
100 91 100 96 92 79 85 80 77 69 71 72 66 74 76 80 83 80 72 68 74 74 75 79 81 80 57
100 100 100 99 84 85 87 89 74 76 76 69 70 80 85 85 84 78 72 74 77 79 80 80 73 46 34
100 97 100 97 84 82 89 77 76 77 74 84 88 94 91 93 87 76 78 76 77 78 74 57 36 30 26
98 86 83 84 82 90 80 80 82 82 91 97 95 93 88 86 83 76 75 74 71 65 38 32 28 21 18
91 93 99 88 85 80 84 90 87 89 93 94 94 95 94 89 82 78 73 66 44 31 30 24 19 17 17
90 95 97 89 86 84 88 88 92 95 97 94 91 92 93 84 77 65 40 33 31 26 21 20 18 16 18
93 96 90 86 88 88 87 94 96 96 91 88 87 90 91 81 63 33 35 28 22 20 18 20 20 18 17

GFSFLT2_250_rhum_069.txt.gz
RH
74 72 72 82 72 68 52 44 39 50 54 39 40 39 35 33 40 48 50 56 62 66 68 58 53 51 48
71 73 69 78 73 64 54 42 46 61 69 63 50 47 36 37 49 54 56 54 54 56 56 60 57 56 54
71 77 74 60 73 58 54 48 59 64 64 72 59 48 43 42 55 62 59 60 60 60 62 63 64 64 61
71 86 66 82 72 72 46 77 73 86 84 80 62 55 56 48 54 58 69 69 69 67 67 69 68 71 73
63 52 37 54 52 44 92 92 98 91 96 92 74 66 64 54 56 58 61 66 72 76 77 75 75 75 77
35 32 41 49 44 60 96 100 100 80 98 93 79 69 73 60 60 61 64 66 67 66 68 75 78 77 76
34 34 45 42 64 100 100 100 100 97 95 82 72 70 84 68 63 66 70 70 68 66 66 63 61 62 67
37 36 44 86 100 100 100 100 97 99 94 78 74 78 82 77 68 71 74 70 69 67 72 72 65 59 60
42 58 93 100 100 100 100 100 100 95 90 81 79 87 86 76 73 77 72 71 74 73 79 82 78 65 57
62 80 100 100 100 100 100 100 99 92 87 88 86 85 80 73 74 71 74 78 78 82 83 80 78 73 65
91 100 100 100 100 100 100 100 99 96 85 85 88 80 78 78 80 78 79 89 90 86 85 84 77 72 70
100 100 100 100 100 100 100 95 92 94 84 100 84 84 79 86 89 86 95 96 93 91 90 85 78 75 72
100 100 100 100 100 97 86 84 94 85 99 91 88 85 89 86 84 90 95 94 88 87 88 84 79 72 65
100 100 100 99 88 79 79 94 92 100 95 92 89 93 87 93 96 89 96 85 81 86 90 80 65 44 33
90 83 86 90 88 93 96 96 96 96 96 92 96 95 92 100 95 97 91 85 87 86 80 57 34 32 30
100 100 98 87 96 97 94 95 96 93 95 97 100 100 100 98 96 97 88 84 80 72 44 38 38 24 20
96 100 100 98 98 95 95 96 99 95 97 100 100 100 100 94 93 88 72 55 51 37 33 32 24 21 18

GFSFLT2_250_rhum_072.txt.gz
RH
32 36 45 48 49 59 60 62 57 65 54 51 50 49 57 64 62 58 50 41 46 58 56 58 58 54 51
29 35 45 51 49 47 48 51 53 48 39 44 59 52 70 79 70 65 57 48 47 56 63 61 59 60 59
31 34 35 38 39 43 42 48 36 45 37 64 82 68 76 84 76 80 64 55 49 51 57 67 70 66 65
34 36 39 38 39 44 43 44 49 38 45 75 87 82 98 86 84 87 64 60 63 57 57 64 68 79 74
36 40 38 40 37 40 39 40 38 43 66 73 90 92 82 85 92 86 70 65 64 65 61 62 66 68 74
36 32 31 35 42 40 42 41 41 57 68 100 100 99 87 84 88 92 77 68 68 64 63 68 68 67 66
28 31 37 39 40 44 45 44 49 61 100 100 100 92 90 99 83 92 78 75 74 69 66 72 67 62 63
28 34 33 36 39 42 47 58 78 100 100 100 100 86 91 93 92 93 82 83 75 74 73 72 69 63 64
32 30 33 42 46 55 66 90 99 100 100 100 100 96 94 83 93 98 92 88 77 78 80 78 79 79 78
37 44 54 59 63 77 87 91 100 100 100 100 100 100 95 86 97 90 85 81 84 80 80 87 93 91 88
56 61 68 82 89 96 100 100 100 100 100 98 96 95 88 89 100 96 88 87 84 82 85 92 94 88 84
70 79 90 95 100 100 100 100 100 97 98 95 88 90 90 98 100 95 86 89 85 81 91 100 96 89 86
91 94 98 100 100 100 100 88 90 89 92 90 97 100 100 100 99 92 92 91 84 90 100 98 95 90 86
94 97 98 100 100 99 97 95 95 98 100 100 100 100 100 100 97 89 88 83 88 97 99 93 90 91 88
100 100 100 99 100 100 100 100 100 100 100 100 100 100 98 95 93 90 89 87 88 91 99 97 91 87 68
100 100 100 99 99 98 97 96 98 100 99 99 99 98 100 98 95 92 90 91 90 94 96 100 80 48 47
100 100 100 100 100 100 100 98 92 91 97 100 98 98 100 100 93 92 95 94 98 95 96 66 61 47 38

GFSFLT2_250_rhum_075.txt.gz
RH
29 28 30 33 34 35 34 37 36 37 39 41 42 44 46 46 42 48 75 77 80 72 63 54 50 49 61
28 28 29 31 33 34 35 36 40 39 42 41 44 43 48 48 45 66 90 92 86 79 69 62 56 52 50
28 30 33 33 35 37 38 39 41 42 43 45 43 46 49 42 61 75 100 95 79 74 78 74 62 56 54
30 32 33 34 36 38 37 38 39 42 41 37 42 55 46 50 67 99 95 100 92 78 82 83 64 62 61
28 24 24 27 28 27 29 34 36 34 36 41 48 50 48 58 77 100 100 100 94 94 85 86 73 67 62
23 19 20 20 22 25 27 26 26 30 36 44 46 50 56 82 100 100 100 100 100 93 89 91 83 76 68
19 18 20 22 23 24 24 27 32 42 48 49 52 60 82 98 100 100 100 100 96 93 92 99 84 80 73
20 20 22 24 27 28 35 36 44 47 52 56 71 87 96 100 100 100 100 96 98 94 95 100 94 86 76
23 26 29 35 35 39 48 55 56 55 63 71 89 96 100 100 100 100 99 92 95 97 99 100 90 90 79
29 33 41 44 44 56 62 68 74 83 92 90 96 100 100 100 100 100 95 94 100 100 100 95 87 88 82
33 36 43 51 70 82 86 89 95 97 97 100 100 100 100 100 94 93 99 100 99 100 98 90 94 92 81
42 52 62 69 74 82 89 91 99 98 97 94 92 91 88 95 100 100 100 100 100 98 96 100 95 90 82
67 77 84 89 95 100 100 100 100 97 94 99 100 100 100 100 100 99 100 100 97 95 100 97 94 90 81
93 99 100 100 100 100 100 100 100 100 100 100 100 100 100 100 97 94 93 99 100 100 100 95 94 83 86
94 96 98 99 100 100 100 100 99 100 100 100 100 97 99 100 98 89 94 95 96 100 100 94 82 82 86
100 100 100 100 100 100 100 100 98 98 98 98 97 96 98 100 100 92 93 91 92 93 92 97 88 91 95
98 100 100 100 100 99 100 100 100 100 100 100 100 100 100 100 93 93 87 87 94 91 93 97 98 82 78

GFSFLT2_250_rhum_078.txt.gz
RH
38 31 30 28 31 32 30 33 34 35 37 35 37 39 39 42 42 56 62 55 66 52 68 85 83 72 63
28 30 30 30 30 31 30 32 33 35 36 37 37 38 37 36 46 58 56 61 68 61 82 94 86 74 71
29 27 27 27 28 29 30 30 31 30 31 31 31 30 31 38 47 48 56 70 66 74 96 97 99 88 80
27 27 27 28 30 30 27 23 22 24 25 25 25 29 29 38 41 48 59 74 74 84 100 100 100 89 88
27 26 25 25 23 20 20 20 20 20 21 23 26 31 31 39 47 64 72 72 86 99 100 100 100 95 91
22 19 18 17 18 19 18 19 22 22 22 28 28 32 41 48 57 64 68 86 99 100 100 100 100 91 91
16 16 17 18 20 22 20 24 26 26 30 30 36 43 51 60 64 72 87 98 100 100 100 100 100 97 94
18 21 22 23 26 27 29 30 31 35 39 42 48 54 63 68 76 93 100 100 100 100 100 100 99 100 99
23 24 26 28 30 33 37 39 42 48 59 62 65 70 75 80 88 100 100 100 100 100 100 100 96 100 100
23 25 26 27 30 35 39 44 48 58 75 85 87 84 86 89 92 94 95 100 100 100 98 100 100 100 99
26 28 29 33 39 43 50 59 70 89 86 90 90 89 90 91 96 100 100 100 100 100 100 100 100 100 100
36 38 46 51 56 59 69 81 89 98 100 100 94 90 87 93 97 99 100 100 100 100 100 100 100 100 91
49 55 64 68 75 86 93 96 98 100 100 100 100 100 100 100 100 100 100 100 100 100 100 92 87 94 96
74 76 76 76 78 81 83 82 85 92 95 100 100 100 99 95 90 86 90 93 93 93 97 98 96 93 94
91 92 90 86 87 93 94 97 99 100 99 96 94 95 95 94 93 90 94 100 100 100 100 96 92 90 92
88 90 95 99 100 100 100 100 100 100 100 100 100 100 100 100 98 95 91 89 88 91 93 98 94 92 97
99 100 97 99 100 100 100 100 100 100 100 100 97 95 96 95 91 90 86 83 82 80 81 83 84 83 84

GFSFLT2_250_rhum_081.txt.gz
RH
100 100 100 76 75 59 39 40 41 37 34 33 35 37 37 40 37 37 37 40 38 47 51 65 64 68 81
58 66 61 45 36 36 42 38 40 41 37 36 36 35 36 35 32 31 34 35 33 42 56 64 68 72 86
66 81 37 40 41 36 36 38 37 37 34 30 29 26 29 27 26 25 27 32 37 48 62 71 81 80 96
58 38 38 37 36 32 28 28 24 20 21 22 22 22 24 24 26 24 29 34 41 47 64 78 91 90 100
39 37 32 25 27 25 18 18 19 20 20 21 23 24 25 26 26 28 32 38 46 60 75 87 93 98 100
27 25 26 20 16 17 18 17 20 23 23 25 28 30 32 33 32 34 39 43 54 74 90 93 96 100 100
23 18 16 17 18 19 22 22 26 29 31 36 35 39 44 44 44 52 51 58 69 82 90 96 100 100 100
18 17 19 21 24 21 22 24 27 30 35 36 45 51 59 64 70 76 67 70 80 91 97 100 100 100 100
19 22 25 24 22 21 24 25 28 32 38 47 57 64 83 76 81 90 84 86 92 100 100 100 100 100 100
25 26 27 28 28 26 26 27 31 36 48 63 67 74 92 92 91 93 96 96 91 95 100 100 100 99 100
31 39 41 38 32 32 35 34 38 44 62 72 84 92 98 98 99 100 99 100 100 100 100 100 100 100 99
56 59 51 42 40 44 49 59 70 77 81 90 96 100 100 100 100 100 100 100 100 100 100 100 100 100 100
71 65 57 50 51 56 62 68 64 66 81 93 100 100 100 100 100 100 98 100 100 100 100 100 100 100 96
80 69 67 69 73 81 89 91 94 97 97 96 98 98 99 100 100 100 100 100 100 100 100 100 97 94 94
82 78 79 85 90 93 95 98 99 100 100 100 100 100 99 100 98 99 98 97 100 99 97 96 96 95 95
80 81 87 84 86 87 92 96 99 100 100 100 100 100 100 99 96 94 96 100 100 100 100 100 96 95 96
85 92 94 93 93 95 99 100 100 100 100 100 100 95 92 96 96 93 89 89 88 90 95 98 99 89 85

GFSFLT2_250_rhum_087.txt.gz
RH
100 66 62 100 99 100 100 100 75 72 84 96 58 73 40 34 22 18 17 18 18 20 23 26 28 33 39
53 96 100 100 100 100 90 75 80 100 100 99 75 38 23 22 15 15 15 16 19 23 28 31 30 31 40
100 100 97 100 100 67 87 100 51 100 64 60 46 34 16 15 15 14 17 20 26 27 31 37 41 40 42
99 75 97 79 78 98 83 77 65 86 68 54 26 19 16 14 15 18 21 22 23 26 31 41 48 48 45
100 88 75 62 41 75 79 93 57 67 60 26 20 16 15 16 19 20 20 20 23 28 38 49 55 53 52
100 78 47 46 71 78 60 67 66 59 54 22 17 17 18 19 21 20 19 22 28 35 47 58 64 65 62
100 59 50 88 70 68 73 67 67 37 22 18 19 20 23 27 25 21 23 25 30 39 52 61 70 77 77
90 59 99 96 86 67 64 70 43 22 19 20 23 26 31 30 25 25 26 28 35 46 56 67 80 86 93
61 97 98 70 75 70 65 66 24 18 22 24 29 36 36 29 28 30 36 40 49 60 75 86 93 98 100
84 93 78 66 64 54 35 22 19 22 27 34 37 43 37 34 33 36 58 71 77 86 90 96 92 97 100
99 100 86 61 50 29 22 21 24 26 38 39 46 48 44 44 49 52 58 68 77 88 100 100 100 100 100
86 80 77 34 25 21 23 26 31 38 40 47 57 53 56 54 56 65 69 78 86 96 100 99 99 100 100
71 36 26 25 22 23 27 32 44 42 35 61 68 64 68 64 64 73 79 87 91 98 100 99 99 99 100
29 26 28 28 28 29 31 53 48 38 49 67 73 68 72 76 83 85 89 89 92 97 99 99 100 99 98
39 36 34 35 38 36 55 59 42 46 67 77 73 76 79 81 86 86 84 89 92 92 90 88 87 89 93
51 43 46 46 50 65 64 46 46 73 81 86 87 90 91 94 98 97 98 98 95 95 96 98 98 97 96
59 60 61 64 82 79 58 54 82 85 90 96 97 91 94 98 96 94 95 96 96 94 95 96 93 95 98

GFSFLT2_250_rhum_090.txt.gz
RH
100 92 99 92 100 99 95 96 78 84 97 100 100 96 82 92 51 62 39 32 19 14 14 17 20 28 32
88 100 100 90 82 86 100 89 89 95 100 100 92 87 82 63 46 39 21 22 14 14 17 18 22 32 39
78 81 100 100 100 100 87 92 100 100 100 99 75 84 69 44 53 45 18 14 14 16 20 20 22 28 38
100 88 98 100 100 88 91 100 100 84 90 80 93 66 40 52 42 31 16 15 15 19 22 19 21 24 30
100 100 100 89 98 96 100 100 100 76 91 87 48 80 79 45 31 16 14 16 19 24 22 20 22 25 31
100 100 100 100 100 99 100 88 100 100 92 60 73 71 70 46 39 16 17 19 24 24 20 21 24 29 38
100 100 100 88 93 100 80 100 76 84 69 68 92 64 56 26 22 18 20 24 27 22 21 23 28 35 43
100 100 100 100 100 99 93 87 87 76 80 91 88 56 35 17 20 22 26 28 27 24 24 31 36 45 54
100 100 100 100 93 78 57 66 82 90 100 87 81 33 18 19 23 26 30 33 28 28 32 44 55 65 69
100 97 94 89 87 81 100 92 99 99 94 77 62 21 22 23 30 31 36 37 37 37 41 51 68 72 84
95 100 99 81 97 99 97 96 95 86 62 45 23 22 27 33 32 36 43 43 50 48 62 60 65 79 89
100 100 84 87 95 100 100 89 80 81 30 24 25 27 39 41 32 43 52 50 55 64 74 81 71 80 84
93 100 94 99 88 92 94 41 33 29 27 29 32 39 50 38 43 59 60 62 63 68 72 93 95 95 94
90 77 91 87 65 40 35 33 31 31 34 39 45 54 52 43 62 69 70 73 75 74 77 80 88 93 98
42 47 48 39 44 50 47 43 38 42 49 52 63 61 48 62 73 76 78 78 84 86 85 86 86 86 90
49 53 48 65 68 68 63 61 54 61 68 75 69 56 66 76 85 88 90 92 91 89 88 88 87 84 85
67 63 70 82 79 89 88 80 79 87 93 90 71 68 77 88 98 100 100 98 95 97 98 96 92 93 98

GFSFLT2_250_rhum_093.txt.gz
RH
100 99 100 93 70 63 70 74 82 100 79 76 99 95 95 89 100 100 100 100 72 48 38 20 14 15 16
99 91 96 77 49 72 69 91 100 93 100 95 87 75 85 100 100 100 80 66 65 50 40 17 15 15 19
85 76 92 94 72 91 90 90 76 93 96 100 85 100 100 100 99 95 77 71 55 40 34 18 15 15 22
74 93 100 96 96 100 86 98 96 93 85 80 100 100 100 100 100 77 61 80 58 37 22 17 15 18 22
100 100 100 100 100 89 100 76 99 88 98 100 100 100 65 71 97 69 68 81 63 52 16 15 17 21 21
100 100 100 100 100 100 100 100 100 100 100 89 100 95 98 82 82 70 100 80 68 35 19 16 20 23 20
90 100 95 100 99 100 100 100 100 100 79 98 99 84 84 86 79 84 97 68 55 20 20 18 23 24 20
100 100 100 100 100 100 100 97 100 100 70 89 97 89 89 76 100 85 91 36 22 21 22 24 27 24 22
100 100 100 100 100 100 98 99 100 100 92 98 100 99 77 88 88 72 45 22 22 23 26 28 32 26 24
99 97 100 100 100 100 100 100 100 100 100 100 99 86 97 59 63 37 23 25 26 28 32 34 37 31 30
100 100 100 100 100 100 100 100 99 98 100 98 98 78 59 43 37 31 28 33 31 38 40 42 42 37 40
100 100 100 100 100 100 100 100 100 100 100 100 87 55 35 34 39 36 42 40 39 45 53 55 50 48 48
100 100 100 100 100 100 100 100 100 87 85 93 50 37 38 45 45 48 56 52 53 50 63 62 59 64 64
98 100 100 100 100 86 82 78 64 81 51 39 46 43 49 55 56 60 67 61 60 61 66 66 66 70 72
64 64 79 80 63 41 44 56 50 52 50 56 65 62 63 69 71 74 71 64 69 77 80 78 74 75 76
70 73 50 35 36 47 56 67 61 65 67 80 81 81 82 86 82 82 74 69 80 91 90 84 83 86 88
55 50 41 47 55 62 81 72 82 90 95 94 98 96 96 100 95 94 83 86 91 96 97 92 87 86 91

GFSFLT2_250_rhum_096.txt.gz
RH
100 100 100 100 98 87 78 64 61 81 87 98 37 36 58 73 80 84 86 100 100 100 100 60 74 65 34
100 100 100 100 99 80 87 73 66 67 68 55 43 42 62 86 80 95 100 100 100 91 100 73 70 51 21
100 100 100 79 75 62 80 83 58 85 65 55 56 64 59 73 80 98 100 100 84 69 78 83 62 55 17
79 75 75 66 53 70 72 86 91 79 63 100 88 82 82 100 100 100 88 97 89 92 100 78 60 55 16
61 55 86 69 56 78 93 80 94 100 100 99 90 92 100 100 100 68 88 88 87 90 96 78 56 39 18
67 75 54 85 73 85 97 100 95 100 100 91 100 100 100 100 99 81 100 100 90 93 98 80 51 20 18
95 99 95 89 100 100 100 100 100 100 100 100 100 100 100 94 97 100 98 100 100 94 94 72 43 21 20
100 100 100 100 100 100 100 100 100 100 100 97 100 100 100 100 98 91 97 100 93 87 75 53 29 24 23
100 100 100 100 100 100 100 100 100 100 98 100 100 100 100 100 100 100 99 97 89 66 37 25 28 29 31
100 100 100 100 100 100 100 100 100 100 100 100 100 100 100 100 100 100 100 92 65 34 28 30 38 38 36
100 100 100 100 100 100 100 100 100 100 100 100 98 100 100 100 100 88 94 72 33 29 34 42 46 48 44
100 100 100 100 100 100 100 100 100 100 100 100 100 93 100 98 87 100 66 34 36 41 49 49 57 58 51
100 100 100 100 100 100 100 100 100 100 100 86 69 87 98 99 88 51 37 41 55 58 66 61 68 71 63
100 100 100 100 100 100 94 73 75 84 71 55 78 79 99 61 47 41 46 63 70 73 77 73 76 74 73
96 99 99 92 83 72 68 61 61 46 51 59 73 94 71 55 49 60 68 84 82 88 90 86 84 78 83
76 78 86 79 68 63 61 54 41 49 52 58 70 79 66 61 72 83 90 96 92 95 99 91 90 89 94
58 58 60 52 50 56 53 47 39 48 54 61 87 78 67 83 91 95 100 100 99 100 100 100 96 100 100

GFSFLT2_250_rhum_099.txt.gz
RH
100 100 100 100 100 100 100 100 93 100 100 91 77 77 69 53 54 40 98 68 95 87 89 100 100 93 69
100 100 100 100 99 100 99 99 100 100 99 100 86 85 60 54 42 80 45 73 95 96 100 100 96 85 77
100 100 100 100 100 100 88 90 100 100 100 96 82 66 60 64 49 63 54 57 88 96 100 100 96 74 92
100 100 100 100 85 100 100 100 100 100 100 80 69 56 48 68 69 82 99 100 100 100 97 78 82 75 70
96 80 74 84 100 99 100 97 100 95 77 65 50 49 76 73 81 100 100 100 100 90 100 100 95 100 97
100 100 77 100 100 75 61 85 76 62 77 61 73 98 98 100 100 100 100 100 100 94 80 75 100 100 89
100 100 94 70 67 95 79 76 78 100 94 94 97 100 100 100 100 100 100 100 100 92 97 100 100 78 54
100 100 100 100 100 100 100 90 98 100 100 100 100 100 100 100 100 100 100 100 100 100 100 100 98 70 66
100 100 100 100 100 100 100 100 100 100 100 100 100 100 100 100 100 99 100 100 100 100 98 100 79 65 46
100 100 100 100 100 100 100 100 100 100 100 100 100 100 100 100 97 100 100 100 100 86 85 77 65 52 35
100 100 100 100 100 100 100 100 100 100 100 100 100 100 100 100 100 97 100 100 92 72 75 65 64 40 38
100 100 100 100 100 100 98 100 100 100 100 100 100 100 100 100 99 100 89 100 80 72 66 58 51 37 48
100 100 100 100 100 100 100 100 100 100 100 100 100 100 100 98 94 86 100 94 70 67 58 50 43 49 60
95 99 100 100 100 100 100 100 100 99 100 99 100 100 97 96 86 98 96 76 78 63 57 48 46 63 74
78 76 72 78 99 100 100 100 100 100 100 100 98 95 86 79 82 94 79 74 78 61 53 51 64 76 90
42 40 49 77 76 80 90 98 92 97 95 97 84 81 69 76 80 78 72 80 76 60 59 73 80 91 93
30 36 47 51 50 50 56 61 58 63 76 67 73 70 65 72 77 71 86 89 73 64 83 92 89 99 97

GFSFLT2_250_rhum_102.txt.gz
RH
90 85 100 100 100 96 94 91 72 82 98 100 100 99 71 99 100 100 100 100 96 89 58 41 42 59 82
79 84 90 78 76 72 87 100 100 100 100 100 100 100 100 100 100 100 100 88 80 69 43 63 66 65 84
100 100 100 100 100 100 100 82 98 96 100 100 100 100 100 100 100 89 88 78 59 50 49 80 94 100 94
100 100 100 100 100 100 100 94 100 100 100 100 100 99 97 100 85 81 58 50 50 54 79 83 100 84 83
100 100 100 100 100 100 100 99 100 93 87 60 74 83 100 90 76 58 55 65 67 98 98 100 97 100 99
100 100 100 100 100 100 100 96 94 100 99 95 97 95 76 44 70 47 82 82 100 100 100 100 100 100 100
98 100 100 100 100 96 88 98 100 99 82 79 66 63 87 71 93 99 88 100 100 100 100 100 100 100 100
100 94 85 81 68 85 94 92 76 73 90 74 90 99 100 100 100 100 100 100 100 100 95 100 100 100 100
100 100 100 100 100 100 100 100 100 100 100 100 100 100 100 100 100 100 100 100 100 100 98 100 89 100 100
100 100 100 100 100 100 100 100 100 100 100 100 100 100 100 100 100 100 100 100 97 85 100 96 98 100 100
100 100 100 100 100 100 100 100 100 100 100 100 100 100 100 100 100 100 100 95 100 100 100 90 100 100 98
100 100 93 96 100 100 100 100 100 100 100 100 100 100 100 100 100 100 100 100 97 98 95 100 100 99 94
88 97 100 100 100 100 100 99 100 88 99 100 100 100 100 100 100 90 100 100 94 97 99 92 95 86 82
56 64 88 91 86 97 100 100 100 96 100 100 100 99 99 100 100 100 100 93 96 92 94 82 86 86 78
54 56 63 74 78 84 97 97 100 100 100 100 99 100 100 100 100 100 90 94 93 86 79 86 79 86 72
34 38 44 54 50 63 74 83 82 80 84 88 95 100 100 100 98 95 81 77 88 78 84 70 80 78 77
7 12 36 40 40 49 55 53 54 64 73 78 78 89 92 95 82 69 73 80 87 71 67 75 87 82 71

GFSFLT2_250_rhum_105.txt.gz
RH
100 100 100 100 100 100 100 100 100 100 90 78 100 100 77 58 53 93 100 100 61 100 100 100 100 91 64
100 100 100 100 100 100 100 100 94 84 83 100 97 90 76 99 100 82 82 99 100 100 100 78 95 100 60
88 85 98 93 93 100 100 91 92 100 100 99 74 100 100 100 72 96 100 100 100 100 70 70 57 48 40
100 100 100 100 100 100 100 100 100 100 100 100 94 100 77 100 98 94 100 98 88 99 62 100 43 43 42
100 100 100 100 99 100 100 100 100 100 100 100 97 96 100 100 100 98 91 83 73 100 84 57 38 58 55
100 100 100 100 100 100 100 100 100 100 90 100 100 100 100 92 84 81 72 56 40 42 39 47 81 90 100
100 100 100 100 100 100 100 100 100 100 100 100 100 97 81 73 68 63 46 32 39 47 48 66 100 100 100
100 100 100 100 100 100 100 100 100 100 100 88 90 77 68 60 51 58 54 63 72 77 86 100 100 82 94
100 100 100 100 100 100 97 99 98 79 81 88 81 100 96 98 98 90 94 88 99 100 100 100 100 92 84
100 100 100 100 100 100 100 100 100 100 100 100 100 100 100 100 100 100 100 100 100 100 100 99 95 100 96
99 100 100 100 100 100 100 100 100 100 100 100 100 100 100 100 100 100 100 100 99 100 100 100 100 95 86
78 83 88 94 86 100 100 100 100 100 100 100 100 100 100 100 100 100 100 100 100 100 100 100 100 91 89
40 47 73 88 87 94 91 99 100 100 100 100 100 100 100 100 100 100 100 100 100 100 99 100 82 98 88
34 39 42 43 54 74 90 100 100 100 98 100 100 99 88 100 87 87 81 80 85 86 100 100 100 100 94
5 7 15 30 46 47 57 57 72 95 99 99 100 96 100 98 100 99 100 100 100 100 100 100 100 100 94
4 4 5 7 12 27 44 56 56 68 96 90 100 100 98 100 100 100 100 100 100 100 100 100 100 95 89
3 3 4 5 6 7 15 41 42 60 60 74 98 100 100 100 100 100 100 100 100 100 100 100 97 90 85

GFSFLT2_250_rhum_108.txt.gz
RH
100 100 100 100 100 100 100 100 100 100 100 100 100 100 97 100 88 100 93 62 100 98 85 69 89 65 97
100 100 100 100 100 100 100 100 100 100 100 100 100 100 100 93 85 72 91 72 100 90 83 100 97 99 97
100 100 100 100 100 100 100 100 100 100 100 100 100 99 100 98 95 72 67 83 97 71 97 99 97 100 86
100 100 100 100 100 100 100 100 100 100 100 100 95 100 88 77 84 55 88 87 76 80 100 87 100 90 76
100 99 100 100 100 100 100 100 100 100 100 100 100 98 100 100 93 84 91 89 81 94 84 85 100 93 85
100 100 100 96 100 100 100 100 87 93 96 96 100 100 97 90 100 100 100 100 81 92 100 82 78 60 51
100 100 100 100 100 100 100 100 100 100 100 100 100 100 100 100 100 100 100 100 91 90 75 70 46 35 38
100 100 100 100 100 100 100 100 100 100 100 100 100 100 94 100 95 92 88 86 81 68 67 49 47 65 73
99 98 98 100 100 100 100 100 100 100 98 100 100 100 100 100 100 97 74 62 58 45 48 55 76 92 91
100 100 100 100 100 100 100 100 100 100 100 100 100 100 100 100 100 100 100 100 100 100 100 92 100 100 100
68 82 98 100 100 100 100 100 100 100 100 100 100 100 100 100 100 100 100 100 100 100 100 100 100 100 100
74 74 67 60 72 85 94 100 100 100 100 100 100 100 100 100 100 100 100 100 100 100 100 100 100 100 99
58 59 68 62 57 51 56 72 97 96 100 100 100 100 100 100 100 100 100 100 100 100 100 100 100 100 100
18 24 35 41 43 52 49 52 53 53 58 88 100 100 100 100 100 100 100 100 100 100 100 100 100 100 100
6 8 11 15 19 24 28 46 54 55 53 58 67 85 99 100 100 100 100 100 100 100 100 100 100 100 100
4 4 5 5 6 6 7 11 22 43 42 51 68 56 87 100 100 100 100 100 100 100 100 100 100 100 100
3 3 3 3 4 5 6 7 8 9 16 25 45 60 50 89 90 90 94 98 100 100 100 100 100 100 100

GFSFLT2_250_rhum_111.txt.gz
RH
63 62 66 68 77 77 86 100 100 92 100 100 100 96 100 100 100 100 100 100 100 100 100 100 97 95 100
58 58 59 66 68 95 100 100 100 100 100 100 100 100 100 100 100 100 100 100 100 100 100 98 89 78 62
36 46 50 61 76 100 100 100 100 100 100 100 100 100 100 100 100 96 100 100 100 100 99 87 82 60 52
52 62 75 100 100 100 100 100 100 100 100 100 100 100 100 100 100 100 100 100 100 97 86 74 69 85 75
88 86 98 100 100 100 100 100 100 100 100 100 100 100 100 100 100 99 100 97 88 85 82 94 99 100 100
92 98 78 86 100 99 100 100 100 100 100 100 100 100 100 100 100 100 100 99 100 100 100 100 94 100 100
100 100 100 94 100 100 100 100 100 100 100 100 100 100 100 100 100 100 100 100 100 100 100 100 100 100 96
100 100 99 100 98 98 100 100 100 100 100 100 100 100 100 100 100 100 100 100 100 100 100 100 100 100 98
98 100 100 100 100 100 100 100 94 100 100 100 100 100 100 100 100 100 100 100 100 100 100 100 100 90 80
60 73 92 99 100 91 99 97 98 92 100 100 100 100 100 100 100 100 100 88 77 84 72 66 71 54 60
56 57 58 58 62 75 80 83 97 99 98 98 100 100 97 100 100 100 100 100 100 99 100 98 95 99 99
59 61 62 59 57 56 56 60 61 67 94 100 100 100 100 99 99 100 100 100 100 100 100 100 100 100 100
44 48 51 56 62 74 80 83 82 72 68 70 88 97 98 100 100 100 100 100 100 100 100 100 100 100 100
14 15 21 29 35 39 44 51 58 63 71 84 84 81 81 91 100 100 100 100 100 100 100 100 100 100 100
8 8 10 13 16 16 15 16 18 24 32 45 61 68 84 87 79 84 100 100 100 100 100 100 100 100 100
9 10 9 10 11 12 12 12 16 19 23 28 30 46 49 64 91 97 82 87 85 98 100 100 100 100 100
3 4 4 5 5 5 5 5 6 6 7 8 16 31 36 40 60 76 82 89 88 92 97 100 100 100 100

GFSFLT2_250_rhum_114.txt.gz
RH
54 65 67 62 61 62 65 76 74 89 84 86 80 76 81 86 100 100 100 100 100 100 100 100 100 100 100
29 33 38 39 38 47 64 80 77 80 79 85 88 100 100 99 100 100 100 100 100 100 100 100 100 100 100
14 15 17 18 20 24 29 36 50 70 65 79 100 100 100 100 100 100 100 100 100 100 100 100 100 100 100
15 17 18 18 21 25 32 51 58 71 96 100 100 100 100 100 100 100 100 100 100 100 100 100 100 100 100
18 22 29 39 50 51 59 61 70 80 97 100 99 100 100 100 100 100 100 100 100 100 97 100 100 100 100
34 28 43 58 59 73 84 87 98 100 100 100 100 100 100 100 100 100 100 100 100 100 100 100 100 100 100
45 52 81 100 80 78 94 87 100 100 94 100 100 100 100 100 100 100 100 100 100 100 100 100 100 100 100
65 75 70 95 92 95 94 87 100 98 94 99 95 100 100 100 100 100 100 100 100 100 100 100 100 100 100
93 86 100 87 91 93 100 100 100 100 100 100 100 100 88 100 100 100 100 100 100 100 100 100 100 100 100
74 81 87 92 94 85 77 79 93 100 100 100 100 100 100 100 100 100 95 92 100 100 100 100 100 99 100
66 66 73 76 73 67 67 68 67 63 94 100 100 99 100 100 100 100 100 100 100 100 100 100 99 93 77
53 55 59 57 56 62 64 67 66 64 66 71 73 87 94 96 100 100 100 100 100 100 100 100 100 100 100
69 70 69 68 66 58 57 60 60 64 65 68 65 71 78 76 78 100 100 100 100 100 100 100 100 100 100
44 46 48 50 54 53 50 47 47 51 57 66 69 65 75 90 82 81 96 100 100 100 100 100 100 100 100
8 9 9 12 16 18 29 37 36 34 37 44 52 54 55 71 79 88 93 94 95 96 96 100 100 100 100
5 5 5 5 5 5 6 6 7 7 8 9 10 13 18 36 75 84 87 88 97 95 95 94 98 100 100
5 5 5 5 6 6 7 7 7 8 8 8 9 10 11 16 34 55 88 94 98 96 100 99 99 100 100

GFSFLT2_250_rhum_117.txt.gz
RH
35 41 49 50 48 47 35 39 54 48 54 58 64 72 79 80 88 96 99 99 100 100 97 100 100 100 100
20 33 37 35 34 25 21 20 24 25 29 42 52 53 58 53 66 87 99 98 90 100 87 100 100 100 100
14 17 19 17 15 14 16 19 17 18 19 20 23 24 24 27 87 77 73 93 100 100 91 100 100 100 100
13 14 14 15 16 16 17 16 18 20 20 19 21 20 26 40 78 97 100 100 100 100 100 100 100 100 100
14 14 14 15 16 16 18 19 20 21 20 20 34 32 63 74 99 100 100 100 100 100 100 100 100 100 100
16 17 16 18 19 19 19 20 22 26 20 42 59 77 100 100 100 100 100 100 100 100 100 100 100 100 100
15 17 18 19 21 21 26 32 47 67 56 70 81 86 98 100 100 98 100 100 100 100 100 100 100 100 100
25 25 25 28 30 36 33 39 38 68 54 65 65 81 87 95 100 100 100 100 100 100 100 100 100 100 100
43 39 42 38 37 39 44 41 47 79 88 100 100 85 81 94 100 100 90 96 100 100 100 100 100 100 100
70 71 74 75 71 65 73 71 81 100 97 100 100 83 99 100 100 100 79 92 98 100 100 100 98 99 99
57 56 60 66 70 70 69 78 86 92 96 81 98 100 100 100 100 100 100 100 100 100 93 92 95 97 88
49 50 50 52 54 63 74 76 84 90 87 76 85 85 88 98 100 100 100 100 100 100 100 100 100 100 100
46 50 48 46 46 45 47 54 63 72 82 92 86 92 90 100 100 100 100 100 100 100 100 100 100 100 100
26 38 40 39 44 48 49 46 49 58 70 71 74 75 80 90 93 98 100 100 100 100 100 100 100 100 100
6 7 9 13 22 25 32 39 40 43 51 57 64 68 74 77 77 82 83 83 91 89 88 93 99 100 100
4 5 5 5 6 6 6 7 10 14 20 29 32 46 57 73 77 76 86 95 95 92 97 96 95 100 100
5 5 5 5 5 4 4 4 5 6 6 6 7 7 9 18 44 54 62 78 89 85 94 100 100 100 100

GFSFLT2_250_rhum_120.txt.gz
RH
24 21 18 18 23 23 30 46 35 46 56 56 49 55 56 63 59 58 55 65 69 63 65 86 99 100 100
38 32 27 18 18 20 25 32 33 35 40 42 42 41 40 45 49 34 26 28 32 42 58 72 71 78 100
34 35 26 20 16 16 20 24 18 19 30 35 25 21 32 28 18 17 19 21 26 37 48 50 59 85 100
19 20 20 18 16 13 14 16 21 19 17 14 17 20 17 16 16 18 20 22 26 28 31 39 47 86 100
10 13 16 15 13 14 14 16 18 17 16 17 18 18 20 19 19 22 23 22 29 43 37 96 75 100 100
9 9 10 11 12 13 14 16 16 17 19 21 20 22 22 23 26 29 25 28 44 68 80 100 89 100 100
13 12 14 14 14 15 16 17 18 19 18 20 19 22 24 33 28 46 47 78 94 100 100 100 100 98 100
18 17 17 17 19 20 20 22 25 25 21 26 25 27 27 34 53 55 66 82 98 100 100 100 100 100 100
28 28 22 22 23 26 28 33 33 38 28 39 42 48 56 66 61 67 90 99 100 100 100 100 100 100 100
36 36 38 37 33 33 29 30 37 41 42 31 48 44 52 65 76 82 84 92 97 92 100 100 95 96 99
37 40 41 42 47 49 53 59 65 72 77 60 68 68 75 77 67 74 82 95 99 100 100 99 100 94 95
25 32 40 44 45 46 52 57 62 75 76 80 87 83 81 93 99 95 80 97 100 98 100 98 96 95 98
15 18 23 31 38 45 52 53 61 70 74 70 72 84 78 93 100 100 89 100 100 100 100 94 100 100 100
7 8 10 12 14 17 27 36 52 63 67 77 76 68 80 84 99 100 100 99 85 96 100 100 100 100 96
5 5 6 7 8 8 10 11 14 29 48 56 65 77 78 85 93 97 100 100 100 98 100 100 99 100 100
4 4 4 4 5 5 6 6 7 8 10 12 28 56 68 77 86 90 92 99 100 100 100 100 100 100 100
3 4 4 4 4 4 4 4 5 5 6 7 6 7 18 61 73 81 85 83 84 89 89 92 94 100 100